Regional Weather Roundup
Issued by NWS Northern Indiana

Home | Current Version | Previous Version | Graphics & Text | Print | Product List | Glossary On
Versions: 1 2 3 4 5 6 7 8 9 10 11 12 13 14 15 16 17 18 19 20 21 22 23 24 25 26 27 28 29 30 31 32 33 34 35 36 37 38 39 40 41 42 43 44 45 46 47 48 49 50
000
ASUS43 KIWX 240110
RWRIWX

KIWX WEATHER ROUNDUP
NATIONAL WEATHER SERVICE NORTHERN INDIANA
900 PM EDT WED APR 23 2014

NOTE: "FAIR" INDICATES FEW OR NO CLOUDS BELOW 12,000 FEET WITH NO
SIGNIFICANT WEATHER AND/OR OBSTRUCTIONS TO VISIBILITY.

* THESE STATIONS ARE NOT UNDER NWS QUALITY CONTROL. THEY ALSO MAY NOT
  REPORT WEATHER SUCH AS PRECIPITATION OR FOG.

INZ001>027-240200-
NORTHERN INDIANA

CITY           SKY/WX    TMP DP  RH WIND       PRES   REMARKS
GARY*          CLOUDY    41  30  65 NE6G17    30.13F
VALPARAISO     CLOUDY    40  27  59 N7        30.11S
MICHIGAN CITY* CLOUDY    37  30  75 N5        30.12F
LAPORTE*       CLOUDY    40  28  63 N8        30.11S
SOUTH BEND     CLOUDY    46  30  53 NW9       30.12R
ELKHART*       CLOUDY    50  30  46 NW7       30.10
GOSHEN         CLOUDY    53  28  38 E5        30.08R
MONTICELLO*    PTCLDY    56  29  35 CALM      30.06S
LOGANSPORT*    MOCLDY    54  27  35 NE3       30.08S
ROCHESTER*     MOCLDY    52  32  46 E3        30.09R
WARSAW*        CLOUDY    52  30  43 CALM      30.08S
ANGOLA*        CLEAR     50  28  43 CALM      30.08S
FORT WAYNE     MOCLDY    51  28  41 E3        30.09R
HUNTINGTON*    FAIR      52  29  41 CALM      30.08R
PERU/GRISSOM   PTCLDY    51  29  41 NE5       30.07S
MARION*        PTCLDY    53  25  33 E3        30.08S

$$
INZ028>050-240200-
CENTRAL INDIANA

CITY           SKY/WX    TMP DP  RH WIND       PRES   REMARKS
LAFAYETTE      PTCLDY    53  28  38 E5        30.07S
KOKOMO*        PTCLDY    52  30  43 CALM      30.08R
MUNCIE*          N/A     51  30  44 CALM      30.08R
INDIANAPOLIS   MOCLDY    53  29  39 NE7       30.06S

$$
MIZ043>046-050>051-056>058-064>065-071>073-077>080-240200-
SOUTHWEST LOWER MICHIGAN

CITY           SKY/WX    TMP DP  RH WIND       PRES   REMARKS
BATTLE CREEK   MOCLDY    50  30  46 NW7       30.09S
BENTON HARBOR  CLOUDY    38  25  59 VRB5      30.12R
COLDWATER*     MOCLDY    50  21  31 CALM      30.09R
HILLSDALE*     MOCLDY    51  19  28 CALM      30.09R
HOLLAND        CLOUDY    45  23  42 NW5       30.12R
GRAND RAPIDS   CLOUDY    48  28  46 NW6       30.10S
KALAMAZOO      CLOUDY    49  29  46 N8        30.10R
STURGIS*       CLOUDY    52  28  40 CALM      30.08S
THREE RIVERS*  FAIR      52  29  41 N3        30.09S

$$
OHZ001>008-015>018-024>025-240200-
NORTHWEST OHIO

CITY           SKY/WX    TMP DP  RH WIND       PRES   REMARKS
WAUSEON*       FAIR      50  23  34 NE3       30.09S
DEFIANCE       MOCLDY    53  21  28 CALM      30.09R
FINDLAY        PTCLDY    49  33  54 SE7       30.08R
TOLEDO EXPRESS MOCLDY    51  20  29 N5        30.09R
TOLEDO METCALF PTCLDY    48  27  44 E3        30.10R
LIMA           CLEAR     51  30  44 E5        30.08R

$$
&&



USA.gov is the U.S. government's official web portal to all federal, state and local government web resources and services.